Regional Weather Roundup
Issued by NWS Grand Forks, ND

Home | Current Version | Previous Version | Graphics & Text | Print | Product List | Glossary On
Versions: 1 2 3 4 5 6 7 8 9 10 11 12 13 14 15 16 17 18 19 20 21 22 23 24 25 26 27 28 29 30 31 32 33 34 35 36 37 38 39 40 41 42 43 44 45 46 47 48 49 50
000
ASUS43 KFGF 301331
RWRFGF
PRAIRIE TO PINES  WEATHER ROUNDUP
NATIONAL WEATHER SERVICE EASTERN NORTH DAKOTA/GRAND FORKS ND
800 AM CDT THU OCT 30 2014

 **SATELLITE DATA USED TO AUGMENT SKY COVER AT AUTOMATED STATIONS**
 *****  WEATHER ACROSS EASTERN NORTH DAKOTA  *****

CITY           SKY/WX    TMP DP  RH WIND       PRES   REMARKS
GRAND FORKS    MOCLDY    29  27  92 N10       30.16R WCI  20
GRAND FRKS AFB CLOUDY    29  29  99 N9        30.17R WCI  20
GRAND FRKS NWS   N/A     30 N/A N/A N12         N/A  WCI  21
DEVILS LAKE    CLOUDY    34  25  69 N16       30.19R WCI  23
FARGO          LGT RAIN  40  38  93 N13       30.11R FOG
WAHPETON ARPT  CLOUDY    37  36  93 N6        30.08R
$$

 ***** WEATHER ACROSS CENTRAL AND WESTERN NORTH DAKOTA  *****

CITY           SKY/WX    TMP DP  RH WIND       PRES   REMARKS
BISMARCK       CLEAR     32  30  92 NW12      30.23R WCI  23
MINOT          CLOUDY    32  29  88 N9        30.28R WCI  24
JAMESTOWN      MOCLDY    34  31  88 N16       30.14R WCI  24
MINOT AFB      CLOUDY    32  32 100 N10       30.28R WCI  24
GARRISON         N/A     30  28  92 N5        30.25R
WILLISTON      CLOUDY    37  33  85 N8        30.30R
DICKINSON      CLOUDY    34  32  92 NW10      30.24R FOG
HETTINGER      CLOUDY    33  32  96 NW15G23   30.25R FOG     WCI  23
$$

 *****  OTHER AIRPORT OBSERVATIONS IN OUR AREA  *****

CITY           SKY/WX    TMP DP  RH WIND       PRES   REMARKS
WALHALLA         N/A     34  34 100 N16G22    30.23R WCI  23
GRAFTON AIRPOR CLOUDY    34  32  93 N13       30.19R WCI  25
VALLEY CITY AR MIX PCPN  36  36 100 N20G30    30.14R
CANDO          CLOUDY    32  30  93 N8        30.24R WCI  25
CAVALIER APRT  CLOUDY    36  32  87 N15G22    30.21R
GWINNER        CLOUDY    43  43 100 N16       30.09R
ROLLA          CLOUDY    30  28  93 N17       30.25R WCI  18
 ***** THE ABOVE OBSERVATIONS ARE NON NWS ARE NOT QUALITY
       CONTROLLED AND MAY MIS-REPORT RAIN FOR SNOW...
$$

  *****  WEATHER ACROSS NORTHERN MINNESOTA  *****

CITY           SKY/WX    TMP DP  RH WIND       PRES   REMARKS
FLAG ISLAND    CLOUDY    36  34  93 NW15      30.11R
WARROAD        CLOUDY    34  30  86 NW9       30.13R
ROSEAU         CLOUDY    34  30  86 NW7       30.14R
HALLOCK        CLOUDY    36  32  87 N9        30.18R
THF RVR FALLS  CLOUDY    34  28  80 N6        30.15R
BAUDETTE       CLOUDY    36  33  89 NW3       30.09R
WASKISH        CLOUDY    36  32  87 CALM      30.10R
CROOKSTON      MOCLDY    32  30  93 N8        30.16R WCI  25
$$
  *****  WEATHER ACROSS CENTRAL AND WEST MINNESOTA  *****

CITY           SKY/WX    TMP DP  RH WIND       PRES   REMARKS
FOSSTON        CLOUDY    34  32  93 N8        30.12R
BEMIDJI        CLOUDY    34  32  94 N3        30.09R
PARK RAPIDS    CLOUDY    36  35  96 N3        30.07R
ELBOW LAKE     CLOUDY    38  37  94 N5        30.05R
WADENA         CLOUDY    36  34  93 N3        30.06R
DETROIT LAKES  DRIZZLE   37  36  93 CALM      30.09R
MOORHEAD       DRIZZLE   39  39 100 N9        30.11R
FERGUS FALLS   CLOUDY    39  37  93 CALM      30.08R
MORRIS MN      CLOUDY    37  37 100 CALM      30.05R
STAPLES        CLOUDY    36  34  93 CALM      30.06R
$$
  *****  WEATHER ELSEWHERE ACROSS MINNESOTA  *****

CITY           SKY/WX    TMP DP  RH WIND       PRES   REMARKS
DULUTH         CLOUDY    36  32  85 NW5       30.03S
INTRNTL FALLS  CLOUDY    34  32  92 NW6       30.06S
ELY            CLOUDY    34  32  93 CALM      30.04R
CLOQUET        CLOUDY    36  32  87 W3        30.06R
WHEATON        CLOUDY    37  36  93 CALM      30.07R
BRAINERD       LGT RAIN  36  34  92 CALM      30.06R
HIBBING        CLOUDY    36  31  82 N6        30.05R
ALEXANDRIA     CLOUDY    39  35  86 NE3       30.05R
SAINT CLOUD    CLOUDY    39  34  82 NE3       30.04R
MINNEAPOLIS    CLOUDY    40  33  76 SE3       30.04F
$$

  *****  WEATHER ACROSS SOUTH DAKOTA  *****

CITY           SKY/WX    TMP DP  RH WIND       PRES   REMARKS
SIOUX FALLS    PTCLDY    42  34  73 NW12      30.01R
BROOKINGS      NOT AVBL
WATERTOWN      CLOUDY    34  33  96 CALM      30.04R
HURON          CLEAR     37  34  89 NW13      30.07R
SISSETON         N/A     38  38 100 N3        30.04R
ABERDEEN       CLEAR     38  35  89 NW12      30.09R
MITCHELL       CLEAR     38  34  85 NW12      30.06R
PIERRE         CLEAR     41  36  82 NW14      30.13R
MOBRIDGE       CLEAR     39  35  86 NW18      30.13R
RAPID CITY     CLEAR     39  30  70 N10       30.22R
$$

  *****  SOME WEATHER IN NEARBY STATES *****

CITY           SKY/WX    TMP DP  RH WIND       PRES   REMARKS
GLASGOW MT     CLOUDY    35  31  85 NE6       30.30R
GREAT FALLS MT CLEAR     32  29  88 S9        30.23S WCI  24
CHEYENNE WY    CLEAR     33  23  66 W9        30.34R
SCOTTSBLUFF NE CLEAR     34  27  75 NW7       30.30R
OMAHA NE       PTCLDY    37  34  89 N6        30.03R
DES MOINES IA  MOCLDY    44  35  70 SE12      30.02F
DAVENPORT IA   MOCLDY    37  33  85 SE6       30.10F
CHICAGO IL     MOCLDY    34  31  88 CALM      30.13S
EAU CLAIRE WI  CLOUDY    36  33  89 CALM      30.06S
LA CROSSE WI   CLOUDY    38  34  85 SE6       30.07F
$$

  *****  SOME NATIONAL WEATHER *****

CITY           SKY/WX    TMP DP  RH WIND       PRES   REMARKS
LA GUARDIA NY  MOSUNNY   53  43  68 NW10      29.99R
RALEIGH NC     MOSUNNY   53  48  83 CALM      30.06R
ATLANTA GA     SUNNY     48  43  82 N7        30.08R
NEW ORLEANS LA PTCLDY    63  46  54 NE13      30.10R
OKLAHOMA CITY  PTCLDY    46  40  79 S7        30.12R
ALBUQUERQUE NM CLEAR     46  13  26 N8        30.31R
SALT LAKE CITY PTCLDY    40  30  67 SE6       30.27S
LOS ANGELES CA MOCLDY    63  62  98 N3        29.98R
BOISE ID       CLEAR     52  37  56 S13       30.14S
SEATTLE WA     CLOUDY    59  48  67 SE7       29.90F
$$

*** WEATHER ACROSS MANITOBA...SASKATCHEWAN AND ONTARIO ***
                ***ONTARIO***

CITY           SKY/WX    TMP DP  RH WIND       PRES   REMARKS
GERALDTON      LGT SNOW  27  27 100 CALM      30.02R
THUNDER BAY    LGT RAIN  36  36 100 NW3       30.03S
SIOUX LOOKOUT  FLURRIES  32  32 100 NW6       30.04R
TORONTO        PTSUNNY   41  36  81 NW6       30.07R
BIG TROUT LK   LGT SNOW  23  21  93 N7        30.05S WCI  15
PICKLE LAKE    FLURRIES  28  25  86 NW7       30.01R WCI  21
DRYDEN         CLOUDY    32  30  93 NW6       30.06R
KENORA         CLOUDY    32  30  93 N8        30.10R WCI  25
$$
                *** MANITOBA***

CITY           SKY/WX    TMP DP  RH WIND       PRES   REMARKS
BRANDON        CLOUDY    30  25  80 N16       30.30R WCI  19
DAUPHIN        CLOUDY    30  25  80 N8        30.35R WCI  23
ISLAND LAKE    LGT SNOW  27  23  86 N15G23    30.18  DRFTSNOWWCI  15
PILOT MOUND      N/A     30  27  86 N15G22      N/A  WCI  19
THE PAS        PTCLDY    30  21  69 N18G26    30.38R WCI  18
THOMPSON       MOCLDY    21  14  73 N13       30.34R WCI   9
WINNIPEG       CLOUDY    34  28  80 N21       30.22R WCI  22
LYNN LAKE      MOCLDY    18  14  86 N12       30.40R WCI   5
CHURCHILL      FLURRIES  23  21  93 NW21G26   30.29R WCI   8
GILLAM         MOCLDY    19  16  86 N22G28    30.28R WCI   3
$$
                ***SASKATCHEWAN***

CITY           SKY/WX    TMP DP  RH WIND       PRES   REMARKS
ESTEVAN        CLOUDY    34  30  86 N10       30.29R
KINDERSLEY     CLOUDY    30  28  93 E10       30.32F WCI  21
LLOYDMINSTER   CLOUDY    32  30  93 SE13G21   30.31S WCI  22
PRINCE ALBERT  CLOUDY    27  21  80 NE6       30.45R WCI  20
REGINA         CLOUDY    32  30  93 N8        30.34R WCI  25
YORKTON        CLOUDY    27  23  86 N13       30.38R WCI  16
N. BATTLEFORD  CLOUDY    30  28  93 E14       30.40R WCI  20
LA RONGE       MOCLDY    18  16  93 W2        30.44R
SASKATOON      CLOUDY    28  25  86 E10       30.43R WCI  19
SWIFT CURRENT  CLOUDY    30  30 100 E9        30.30R FOG     WCI  22
$$
NOTE: THESE ARE AUTOMATED STATIONS WITH LIMITED QUALITY CONTROL
      "FAIR" INDICATES FEW OR NO CLOUDS BELOW 12,000 FEET WITH NO
      SIGNIFICANT WEATHER AND/OR OBSTRUCTIONS TO VISIBILITY.
      SKY/WX - SKY CONDITION AND SIGNIFICANT WEATHER.
      TMP - AIR TEMPERATURE.    DP   - DEWPOINT TEMPERATURE.
      RH  - RELATIVE HUMIDITY.  PRES - PRESSURE.
      HX  - HEAT INDEX.         WCI  - WIND CHILL INDEX.
$



USA.gov is the U.S. government's official web portal to all federal, state and local government web resources and services.